Content
SEND FEEDBACK

Daily
Averages
Monthly
Summary
United States of America

MIDDLETON, PENNSYLVANIA


Home > North America > United States > Pennsylvania
Elevation: 371 feet     Latitude: 40 12N     Longitude: 076 46W

WEATHER
 
SELECT A DAY
Number of Records: 198,937;   Date Range: 1/1/95 - 11/25/14
 
SHARE

PRINT THIS DATA

[ ← Previous Day ]
WEATHER ALMANAC - FEBRUARY 13, 2013
[ Next Day → ]
[ °C ]   °F
Weather ElementAverageHighLow
Temperature32.8 °F39.9 °F (12:56 pm)24.1 °F (3:56 am)
Dewpoint27.7 °F32 °F (7:56 pm)21 °F (3:56 am)
Humidity82.9 %100 % (7:56 pm)58 % (12:56 pm)
Barometer29.79 in29.97 in (1:56 am)29.70 in (5:20 pm)
Wind Speed2.8 mph8.1 mph (11:56 pm)
Weather ElementAverage
Visibility4.2 mi
Wind DirectionESE (112.7 °)

Weather ElementTotal
Precipitation0.29 in
Heating Degree Days33 (Base 65)
Averaged from 33 records on February 13, 2013
WEATHER CONDITIONS BREAKOUT
WIND DIRECTION BREAKOUT
WEATHER BY HOUR - FEBRUARY 13, 2013
[ °C ]   °F
Local TimeTemperatureDewpointHumidityBarometerVisibilityWind DirectionWind SpeedGust SpeedPrecipitationEventsConditions
1:56 AM26.1 °F21.9 °F84 %29.97 in8.0 miCalmPartly Cloudy
2:56 AM26.1 °F23.0 °F88 %29.93 in7.0 miCalmPartly Cloudy
3:56 AM24.1 °F21.0 °F88 %29.93 in7.0 miCalmClear
4:56 AM24.1 °F21.0 °F88 %29.91 in6.0 miCalmClear
5:56 AM24.1 °F21.0 °F88 %29.91 in6.0 miEast (80°)3.5 mphClear
6:56 AM24.1 °F21.0 °F88 %29.91 in4.0 miCalmMostly Cloudy
7:56 AM28.0 °F24.1 °F85 %29.89 in5.0 miCalmMostly Cloudy
8:56 AM30.0 °F26.1 °F85 %29.88 in5.0 miCalmMostly Cloudy
9:56 AM34.0 °F28.0 °F79 %29.89 in6.0 miCalmHaze
10:56 AM35.1 °F26.1 °F70 %29.88 in7.0 miCalmOvercast
11:56 AM39.0 °F27.0 °F62 %29.84 in9.0 miSE (140°)5.8 mphMostly Cloudy
12:56 PM39.9 °F26.1 °F58 %29.79 in9.0 miESE (120°)6.9 mphOvercast
1:56 PM39.9 °F26.1 °F58 %29.76 in9.0 miEast (80°)3.5 mphOvercast
2:56 PM39.9 °F27.0 °F60 %29.73 in9.0 miEast (100°)5.8 mphOvercast
3:56 PM39.9 °F26.1 °F58 %29.71 in9.0 miCalmOvercast
4:56 PM39.0 °F27.0 °F62 %29.71 in8.0 miCalm0.00 inRainLight Rain
5:20 PM37.4 °F28.4 °F70 %29.70 in4.0 miNNE (30°)5.8 mph0.00 inSnowLight Snow
5:21 PM37.4 °F28.4 °F70 %29.70 in2.0 miVariable6.9 mph0.00 inSnowLight Snow
5:36 PM35.6 °F30.2 °F81 %29.70 in3.0 miNNE (20°)3.5 mph0.01 inSnowLight Snow
5:44 PM35.6 °F30.2 °F81 %29.70 in1.5 miCalm0.01 inSnowLight Snow
5:56 PM34.0 °F30.9 °F89 %29.72 in1.5 miNNW (340°)3.5 mph0.02 inSnowLight Snow
6:03 PM33.8 °F30.2 °F87 %29.71 in1.5 miNNW (340°)3.5 mph0.01 inSnowLight Snow
6:33 PM32.0 °F30.2 °F93 %29.71 in0.8 miWNW (300°)3.5 mph0.03 inSnowLight Snow
6:56 PM32.0 °F30.9 °F96 %29.72 in0.8 miNW (310°)3.5 mph0.06 inSnowLight Snow
7:56 PM32.0 °F32.0 °F100 %29.73 in0.8 miCalm0.05 inSnowLight Snow
8:07 PM32.0 °F32.0 °F100 %29.72 in0.8 miCalm0.01 inSnowLight Snow
8:56 PM32.0 °F30.9 °F96 %29.73 in0.8 miCalm0.02 inSnowLight Snow
9:28 PM32.0 °F30.2 °F93 %29.73 in0.8 miNW (310°)5.8 mph0.02 inSnowLight Snow
9:56 PM32.0 °F30.9 °F96 %29.75 in0.8 miNW (310°)6.9 mph0.04 inSnowLight Snow
10:56 PM32.0 °F32.0 °F100 %29.75 in1.0 miNW (320°)4.6 mph0.01 inSnowLight Snow
11:15 PM32.0 °F30.2 °F93 %29.74 in1.5 miNW (310°)6.9 mph0.00 inOvercast
11:31 PM33.8 °F32.0 °F93 %29.75 in1.5 miWNW (300°)5.8 mph0.00 inSnowLight Snow
11:56 PM32.0 °F30.9 °F96 %29.76 in2.0 miNW (310°)8.1 mph0.00 inMostly Cloudy
Hourly data recorded from KMDT, located miles away from Middleton, Pennsylvania







STORIES FROM OUR PARTNERS